FW4383 Weather Reports


Display with metric or nautical units.
time (UTC)temp
F
wind
direction
speed
MPH
gust
MPH
rain 1hr
in
rain 24hr
in
rain mn
in
humidity
%
barometer
mb
20260905183037 63 33 1.0 6.0 0.00 0.00 0.00 78 1020.5
20260905181609 61 65 1.0 5.0 0.00 0.00 0.00 83 1020.7
20260905174535 58 180 0.0 2.0 0.00 0.00 0.00 87 1020.8
20260905173035 58 180 0.0 1.0 0.00 0.00 0.00 90 1020.8
20260905171535 57 180 0.0 2.0 0.00 0.00 0.00 91 1020.8
20260905164533 56 180 0.0 2.0 0.00 0.00 0.00 91 1020.8
20260905163035 55 180 1.0 3.0 0.00 0.00 0.00 92 1020.7
20260905161534 55 180 1.0 4.0 0.00 0.00 0.00 94 1020.7
20260905160031 54 167 0.0 4.0 0.00 0.00 0.00 95 1020.7
20260905153034 53 90 0.0 1.0 0.00 0.00 0.00 97 1020.7
20260905151530 53 90 0.0 0.0 0.00 0.00 0.00 97 1020.7
20260905150033 52 90 0.0 0.0 0.00 0.00 0.00 96 1020.6
20260905144535 52 90 0.0 1.0 0.00 0.00 0.00 96 1020.6
20260905143035 51 90 0.0 2.0 0.00 0.00 0.00 96 1020.5
20260905141533 50 90 0.0 2.0 0.00 0.00 0.00 96 1020.4
20260905140031 50 90 0.0 0.0 0.00 0.00 0.00 96 1020.2
20260905134535 50 90 0.0 0.0 0.00 0.00 0.00 95 1020.1
20260905131530 51 90 0.0 0.0 0.00 0.00 0.00 96 1019.9
20260905130036 52 89 0.0 0.0 0.00 0.00 0.00 96 1019.8
20260905124533 52 67 0.0 0.0 0.00 0.00 0.00 96 1019.9
20260905123035 52 67 0.0 0.0 0.00 0.00 0.00 96 1019.9
20260905121533 52 67 0.0 0.0 0.00 0.00 0.00 96 1019.9
20260905120034 52 67 0.0 0.0 0.00 0.00 0.00 96 1019.8
20260905114533 51 67 0.0 0.0 0.00 0.00 0.00 95 1019.8
20260905104536 52 67 0.0 0.0 0.00 0.00 0.00 94 1019.6
20260905103036 52 67 0.0 0.0 0.00 0.00 0.00 94 1019.6
20260905101532 52 67 0.0 0.0 0.00 0.00 0.00 94 1019.6
20260905100106 52 67 0.0 0.0 0.00 0.00 0.00 94 1019.6
20260905094531 53 67 0.0 0.0 0.00 0.00 0.00 94 1019.7
20260905093110 53 67 0.0 0.0 0.00 0.00 0.00 94 1019.5
20260905090036 53 67 0.0 0.0 0.00 0.00 0.00 94 1019.5
20260905084606 53 67 0.0 1.0 0.00 0.00 0.00 94 1019.5
20260905081606 54 67 0.0 0.0 0.00 0.00 0.00 94 1019.3
20260905080036 54 67 0.0 0.0 0.00 0.00 0.00 93 1019.2
20260905074536 54 67 0.0 2.0 0.00 0.00 0.00 93 1019.1
20260905073036 54 42 0.0 1.0 0.00 0.00 0.00 93 1018.9
20260905071537 54 360 0.0 1.0 0.00 0.00 0.00 92 1018.7
20260905070055 54 5 0.0 3.0 0.00 0.00 0.00 92 1018.6
20260905064531 55 88 1.0 4.0 0.00 0.00 0.00 92 1018.5
20260905061532 54 243 0.0 3.0 0.00 0.00 0.00 91 1018.6
20260905054531 54 225 0.0 1.0 0.00 0.00 0.00 90 1018.4
20260905053036 54 225 0.0 0.0 0.00 0.00 0.00 89 1018.3
20260905051535 54 225 0.0 0.0 0.00 0.00 0.00 89 1018.4
20260905050030 54 225 0.0 0.0 0.00 0.00 0.00 88 1018.3
20260905044536 55 225 0.0 0.0 0.00 0.00 0.00 87 1018.2
20260905043107 55 225 0.0 2.0 0.00 0.00 0.00 85 1018.1
20260905040108 57 279 1.0 5.0 0.00 0.00 0.00 82 1017.9
20260905034537 56 304 2.0 5.0 0.00 0.00 0.00 84 1017.8
20260905033035 56 291 1.0 5.0 0.00 0.00 0.00 85 1017.6
20260905030033 57 247 0.0 0.0 0.00 0.00 0.00 80 1017.4
20260905024535 59 247 0.0 3.0 0.00 0.00 0.00 76 1017.3
20260905023037 60 253 0.0 4.0 0.00 0.00 0.00 72 1017.3
20260905020035 61 289 1.0 5.0 0.00 0.00 0.00 68 1017.0
20260905014541 63 298 3.0 8.0 0.00 0.00 0.00 65 1016.9
20260905013033 64 281 3.0 7.0 0.00 0.00 0.00 65 1016.7
20260905011610 64 276 4.0 10.0 0.00 0.00 0.00 66 1016.6
20260905004536 65 275 3.0 9.0 0.00 0.00 0.00 66 1016.6
20260905003107 65 300 1.0 8.0 0.00 0.00 0.00 68 1016.4
20260905000032 64 275 2.0 5.0 0.00 0.00 0.00 67 1016.3
20260904233034 64 242 1.0 5.0 0.00 0.00 0.00 67 1016.3
20260904231536 64 222 1.0 4.0 0.00 0.00 0.00 67 1016.2
20260904224534 66 209 0.0 6.0 0.00 0.00 0.00 61 1016.2
20260904223033 67 243 1.0 4.0 0.00 0.00 0.00 60 1016.0
20260904221643 67 305 1.0 4.0 0.00 0.00 0.00 64 1015.9
20260904214538 64 127 1.0 4.0 0.00 0.00 0.00 70 1015.9
20260904213032 64 180 0.0 2.0 0.00 0.00 0.00 66 1015.8
20260904210034 65 180 0.0 2.0 0.00 0.00 0.00 69 1015.8
20260904203110 64 324 0.0 3.0 0.00 0.00 0.00 68 1016.0
20260904194536 64 314 0.0 3.0 0.00 0.00 0.00 70 1016.3
20260904191537 64 28 1.0 4.0 0.00 0.00 0.00 72 1016.5
20260904190036 61 88 1.0 4.0 0.00 0.00 0.00 75 1016.6